This is the latest recevied weather packets stored in our database for station/object KM4CNW. If no packets are shown the sender has not sent any weather packets the latest 10 day(s).
| Time | Temp. | Humidity | Pressure | Rain* | Wind** | Luminosity | Snow |
|---|---|---|---|---|---|---|---|
| 1777819739 | 13.89° C | 37% | 1014.6 hPa | 0 mm | - | 699 W/m² | - |
| 1777819438 | 14.44° C | 36% | 1014.6 hPa | 0 mm | - | 684 W/m² | - |
| 1777819135 | 13.89° C | 36% | 1014.5 hPa | 0 mm | - | 667 W/m² | - |
| 1777818831 | 13.89° C | 36% | 1014.7 hPa | 0 mm | - | 651 W/m² | - |
| 1777818528 | 13.89° C | 37% | 1014.4 hPa | 0 mm | - | 636 W/m² | - |
| 1777818225 | 13.33° C | 40% | 1014.3 hPa | 0 mm | - | 620 W/m² | - |
| 1777817921 | 13.33° C | 40% | 1014.4 hPa | 0 mm | - | 600 W/m² | - |
| 1777817619 | 13.33° C | 40% | 1014.3 hPa | 0 mm | - | 435 W/m² | - |
| 1777817315 | 12.78° C | 40% | 1014.3 hPa | 0 mm | - | 500 W/m² | - |
| 1777817013 | 12.22° C | 40% | 1014.3 hPa | 0 mm | - | 411 W/m² | - |
| 1777816708 | 12.22° C | 40% | 1014.5 hPa | 0 mm | - | 44 W/m² | - |
| 1777816406 | 12.22° C | 42% | 1014.3 hPa | 0 mm | - | 73 W/m² | - |
| 1777816104 | 12.22° C | 41% | 1014.3 hPa | 0 mm | - | 44 W/m² | - |
| 1777815801 | 12.22° C | 43% | 1014.2 hPa | 0 mm | - | 45 W/m² | - |
| 1777815498 | 11.67° C | 46% | 1014.3 hPa | 0 mm | - | 38 W/m² | - |
| 1777815196 | 11.67° C | 50% | 1014.3 hPa | 0 mm | - | 41 W/m² | - |
| 1777814892 | 11.67° C | 49% | 1014.3 hPa | 0 mm | - | 148 W/m² | - |
| 1777814589 | 11.11° C | 49% | 1014.2 hPa | 0 mm | - | 70 W/m² | - |
| 1777814286 | 11.11° C | 49% | 1014.1 hPa | 0 mm | - | 95 W/m² | - |
| 1777813982 | 11.11° C | 50% | 1014.1 hPa | 0 mm | - | 36 W/m² | - |
| 1777813680 | 10.56° C | 52% | 1014.1 hPa | 0 mm | - | 36 W/m² | - |
| 1777813377 | 10.56° C | 58% | 1014 hPa | 0 mm | - | 49 W/m² | - |
| 1777813074 | 10.56° C | 57% | 1014.1 hPa | 0 mm | - | 33 W/m² | - |
| 1777812772 | 10° C | 60% | 1014.2 hPa | 0 mm | - | 58 W/m² | - |
| 1777812468 | 10° C | 62% | 1014.1 hPa | 0 mm | - | 48 W/m² | - |
* Rain latest hour (hover to see other rain measurements)
** Current wind speed in m/s (hover to see current wind gust speed)